DW2738 Mays Landing NJ US current weather conditions

sailwx.info

Wind from 112

Air temperature -2.8° C
Dewpoint -8.2° C

Last reported at 2019-Dec-12 23:07 UTC.
Time now 2019-Dec-12 23:42 UTC

Location: N 39°27' W 074°44'.
View on Google Maps.

See reports from other nearby stations

  
Tides and Currents Weather Stations Pressure Air Temp Water Temp Dewpoint Dewpoint Depression Visibility Wind Speed Wind Dir Waves Ship Positions
date/time (UTC)wind fromknots sea level pressurealtimeterstation pressurevisibilityair tempwater tempwave heightnotes
2019-Dec-12 23:07 112 -2.8
2019-Dec-12 23:02 112 -2.8
2019-Dec-12 22:52 112 -2.2
2019-Dec-12 22:47 112 -2.2
2019-Dec-12 22:42 112 -2.2
2019-Dec-12 22:36 112 -2.2
2019-Dec-12 22:31 112 -2.2
2019-Dec-12 22:26 112 -1.7
2019-Dec-12 22:21 112 -1.7
2019-Dec-12 22:16 112 -1.7
2019-Dec-12 22:11 112 -1.7
2019-Dec-12 22:06 112 -1.1
2019-Dec-12 22:00 112 -1.1
2019-Dec-12 21:55 112 -0.6
2019-Dec-12 21:50 112 -0.6
2019-Dec-12 21:45 112 -0.6
2019-Dec-12 21:40 112 -0.0
2019-Dec-12 21:35 112 -0.0
2019-Dec-12 21:30 112 0.6
2019-Dec-12 21:25 112 0.6
2019-Dec-12 21:20 112 0.6
2019-Dec-12 21:15 112 1.1
2019-Dec-12 21:10 158 1.1
2019-Dec-12 21:05 135 1.1
2019-Dec-12 21:00 158 0 gusting 2 1.7
2019-Dec-12 20:55 158 1 gusting 2 1.7
2019-Dec-12 20:50 180 1 gusting 2 1.7
2019-Dec-12 20:45 090 0 gusting 2 1.7
2019-Dec-12 20:40 090 2.2
2019-Dec-12 20:35 180 1 gusting 2 2.2
2019-Dec-12 20:30 135 2.2
2019-Dec-12 20:25 068 0 gusting 2 2.2
2019-Dec-12 20:20 112 2.2
2019-Dec-12 20:15 135 1 gusting 2 2.2
2019-Dec-12 20:10 158 0 gusting 2 2.8
2019-Dec-12 20:05 202 2.8
2019-Dec-12 20:00 112 0 gusting 3 2.8
2019-Dec-12 19:55 135 0 gusting 3 2.8
2019-Dec-12 19:50 248 2.8
2019-Dec-12 19:45 270 2.8
2019-Dec-12 19:40 135 0 gusting 3 2.8
2019-Dec-12 19:35 158 1 gusting 3 2.8
2019-Dec-12 19:30 292 1 gusting 2 2.8
2019-Dec-12 19:25 202 2.8
2019-Dec-12 19:20 135 1 gusting 2 3.3
2019-Dec-12 19:15 270 0 gusting 2 3.3
2019-Dec-12 19:10 225 1 gusting 2 3.3
2019-Dec-12 19:05 270 1 gusting 1 2.8
2019-Dec-12 19:00 225 0 gusting 2 2.8
2019-Dec-12 18:55 248 0 gusting 2 2.8
2019-Dec-12 18:50 158 0 gusting 2 2.8
2019-Dec-12 18:45 090 1 gusting 2 2.8
2019-Dec-12 18:40 158 1 gusting 2 2.8
2019-Dec-12 18:35 068 0 gusting 2 2.2
2019-Dec-12 18:30 180 0 gusting 2 2.2
2019-Dec-12 18:25 112 0 gusting 2 2.2
2019-Dec-12 18:20 112 0 gusting 2 2.2
2019-Dec-12 18:15 090 1 gusting 2 2.2
2019-Dec-12 18:10 202 1 gusting 2 1.7
2019-Dec-12 18:05 248 1 gusting 2 1.7
2019-Dec-12 18:00 045 1 gusting 2 1.7
2019-Dec-12 17:55 225 1.7
2019-Dec-12 17:50 248 0 gusting 3 1.7
2019-Dec-12 17:45 135 1 gusting 3 1.7
2019-Dec-12 17:40 248 1 gusting 3 1.1
2019-Dec-12 17:35 090 1 gusting 3 1.1
2019-Dec-12 17:30 112 1 gusting 3 1.1
2019-Dec-12 17:25 180 1.1
2019-Dec-12 17:20 090 0 gusting 2 1.1
2019-Dec-12 17:15 315 0 gusting 1 1.1
2019-Dec-12 17:10 045 0 gusting 1 1.1
2019-Dec-12 17:05 022 1 gusting 1 1.1
2019-Dec-12 17:00 225 1 gusting 3 1.1
2019-Dec-12 16:55 270 1 gusting 3 1.1
2019-Dec-12 16:50 112 1 gusting 3 1.1
2019-Dec-12 16:44 158 1 gusting 3 1.1
2019-Dec-12 16:39 180 0 gusting 2 1.1
2019-Dec-12 16:34 045 2 gusting 2 1.1
2019-Dec-12 16:29 112 0 gusting 2 1.1
2019-Dec-12 16:24 248 0 gusting 1 1.1
2019-Dec-12 16:19 248 0 gusting 2 1.1
2019-Dec-12 16:14 225 1 gusting 2 1.1
2019-Dec-12 16:09 180 0 gusting 1 1.1
2019-Dec-12 16:04 225 1 gusting 2 1.7
2019-Dec-12 15:59 135 0 gusting 2 1.7
2019-Dec-12 15:54 225 1.1
2019-Dec-12 15:49 112 1 gusting 2 1.1
2019-Dec-12 15:42 045 0 gusting 1 1.1
2019-Dec-12 15:37 270 0 gusting 1 1.1
2019-Dec-12 15:32 338 1.1
2019-Dec-12 15:27 090 1 gusting 2 1.1
2019-Dec-12 15:22 270 1 gusting 2 1.1
2019-Dec-12 15:17 248 0 gusting 2 1.1
2019-Dec-12 15:12 248 0 gusting 2 1.1
2019-Dec-12 15:07 090 1 gusting 2 1.1
2019-Dec-12 15:02 248 0 gusting 2 1.1
2019-Dec-12 14:57 068 0 gusting 2 0.6
2019-Dec-12 14:50 248 0.6
2019-Dec-12 14:45 315 1 gusting 2 0.6
2019-Dec-12 14:40 248 0 gusting 1 -0.0
2019-Dec-12 14:35 315 0 gusting 2 -0.0
2019-Dec-12 14:30 292 1 gusting 3 -0.0
2019-Dec-12 14:25 270 1 gusting 3 -0.6
2019-Dec-12 14:20 090 0 gusting 2 -0.6
2019-Dec-12 14:15 270 -0.6
2019-Dec-12 14:10 225 -1.1
2019-Dec-12 14:05 090 -1.1
2019-Dec-12 14:00 045 -1.7
2019-Dec-12 13:55 338 0 gusting 1 -1.7
2019-Dec-12 13:50 022 -2.2
2019-Dec-12 13:45 045 1 gusting 1 -2.2
2019-Dec-12 13:40 202 -2.8
2019-Dec-12 13:35 135 -3.3
2019-Dec-12 13:30 090 -3.3
2019-Dec-12 13:25 112 -4.4
2019-Dec-12 13:20 112 -4.4
2019-Dec-12 13:15 112 0 gusting 0 -4.4
2019-Dec-12 13:10 090 -5.0
2019-Dec-12 13:05 090 -5.0
2019-Dec-12 13:00 090 -5.0
2019-Dec-12 12:55 090 -5.0
2019-Dec-12 12:50 112 -5.0
2019-Dec-12 12:45 112 -5.0
2019-Dec-12 12:40 135 -4.4
2019-Dec-12 12:35 135 -4.4
2019-Dec-12 12:30 135 -4.4
2019-Dec-12 12:25 090 -4.4
2019-Dec-12 12:20 248 -4.4
2019-Dec-12 12:15 135 -4.4
2019-Dec-12 12:10 158 0 gusting 1 -4.4
2019-Dec-12 12:05 248 -3.9
2019-Dec-12 12:00 315 -3.9
2019-Dec-12 11:55 135 0 gusting 2 -3.9
2019-Dec-12 11:50 292 0 gusting 2 -3.9
2019-Dec-12 11:45 022 -3.9
2019-Dec-12 11:38 202 1 gusting 1 -3.3
2019-Dec-12 11:33 315 0 gusting 2 -3.3
2019-Dec-12 11:28 022 0 gusting 2 -3.3
2019-Dec-12 11:23 225 0 gusting 2 -3.3
2019-Dec-12 11:18 338 0 gusting 2 -3.3
2019-Dec-12 11:13 022 1 gusting 2 -3.3
2019-Dec-12 11:08 270 1 gusting 1 -3.3
2019-Dec-12 11:03 068 -3.3
2019-Dec-12 10:58 338 1 gusting 2 -3.3
2019-Dec-12 10:53 338 0 gusting 3 -3.3
2019-Dec-12 10:48 045 1 gusting 5 -3.3
2019-Dec-12 10:43 -3.3
2019-Dec-12 10:38 248 1 gusting 4 -3.3
2019-Dec-12 10:33 068 0 gusting 4 -3.9
2019-Dec-12 10:28 270 1 gusting 4 -3.9
2019-Dec-12 10:23 270 1 gusting 2 -4.4
2019-Dec-12 10:18 045 0 gusting 2 -4.4
2019-Dec-12 10:13 135 -4.4
2019-Dec-12 10:08 248 0 gusting 1 -4.4
2019-Dec-12 10:03 045 0 gusting 3 -5.0
2019-Dec-12 09:58 045 0 gusting 3 -5.0
2019-Dec-12 09:53 158 -5.0
2019-Dec-12 09:48 225 -5.0
2019-Dec-12 09:43 225 -5.0
2019-Dec-12 09:38 180 -5.0
2019-Dec-12 09:33 270 -5.0
2019-Dec-12 09:25 180 0 gusting 0 -5.0
2019-Dec-12 09:20 180 -5.0
2019-Dec-12 09:18 112 -5.0
2019-Dec-12 09:10 248 -5.0
2019-Dec-12 09:05 315 0 gusting 1 -5.0
2019-Dec-12 09:00 338 0 gusting 1 -5.0
2019-Dec-12 08:55 180 -5.0
2019-Dec-12 08:50 180 -5.0
2019-Dec-12 08:45 292 -5.0
2019-Dec-12 08:39 292 -5.0
2019-Dec-12 08:34 292 -4.4
2019-Dec-12 08:29 270 -4.4
2019-Dec-12 08:24 270 -4.4
2019-Dec-12 08:19 270 -4.4
2019-Dec-12 08:14 248 -4.4
2019-Dec-12 08:09 248 -4.4
2019-Dec-12 08:04 225 0 gusting 0 -4.4
2019-Dec-12 07:59 248 -4.4
2019-Dec-12 07:54 292 0 gusting 1 -4.4
2019-Dec-12 07:49 315 -4.4
2019-Dec-12 07:44 202 -4.4
2019-Dec-12 07:39 202 -4.4
2019-Dec-12 07:34 112 -4.4
2019-Dec-12 07:29 338 -4.4
2019-Dec-12 07:24 315 -4.4
2019-Dec-12 07:19 292 -4.4
2019-Dec-12 07:09 270 -4.4
2019-Dec-12 07:04 270 -4.4
2019-Dec-12 06:59 270 -4.4
2019-Dec-12 06:54 270 -4.4
2019-Dec-12 06:49 270 -4.4
2019-Dec-12 06:44 270 -4.4
2019-Dec-12 06:39 292 -4.4
2019-Dec-12 06:34 270 -4.4
2019-Dec-12 06:29 270 -4.4
2019-Dec-12 06:24 270 -3.9
2019-Dec-12 06:19 270 -3.9
2019-Dec-12 06:14 270 -3.9
2019-Dec-12 06:09 270 -3.9
2019-Dec-12 06:04 270 -3.9
2019-Dec-12 05:59 270 -3.9
2019-Dec-12 05:54 270 -3.9
2019-Dec-12 05:49 270 -3.9
2019-Dec-12 05:44 270 -3.3
2019-Dec-12 05:39 248 -3.3
2019-Dec-12 05:34 225 -3.3
2019-Dec-12 05:29 248 -3.3
2019-Dec-12 05:24 248 -3.3
2019-Dec-12 05:19 338 -3.3
2019-Dec-12 05:14 158 -3.3
2019-Dec-12 05:09 158 -2.8
2019-Dec-12 05:04 112 -2.8
2019-Dec-12 04:59 248 -2.8
2019-Dec-12 04:53 248 0 -2.8
2019-Dec-12 04:48 248 -2.8
2019-Dec-12 04:43 292 -2.8
2019-Dec-12 04:38 270 -2.8
2019-Dec-12 04:33 180 1 gusting 2 -2.8
2019-Dec-12 04:28 248 -2.2
2019-Dec-12 04:23 202 -2.2
2019-Dec-12 04:18 225 0 gusting 0 -2.2
2019-Dec-12 04:13 315 -2.2
2019-Dec-12 04:08 338 -2.2
2019-Dec-12 04:03 248 0 gusting 1 -2.2
2019-Dec-12 03:58 270 -2.2
2019-Dec-12 03:53 292 -2.2
2019-Dec-12 03:48 292 1 gusting 4 -2.2
2019-Dec-12 03:43 338 -2.2
2019-Dec-12 03:38 315 0 gusting 1 -2.2
2019-Dec-12 03:33 248 -2.2
2019-Dec-12 03:27 135 0 gusting 1 -1.7
2019-Dec-12 03:22 225 -1.7
2019-Dec-12 03:17 068 0 gusting 4 -1.7
2019-Dec-12 03:12 315 1 gusting 4 -1.7
2019-Dec-12 03:07 338 0 gusting 2 -1.7
2019-Dec-12 03:02 315 0 gusting 2 -1.7
2019-Dec-12 02:57 338 1 gusting 2 -1.7
2019-Dec-12 02:52 225 0 gusting 3 -1.7
2019-Dec-12 02:47 202 0 gusting 3 -1.7
2019-Dec-12 02:42 270 1 gusting 3 -1.7
2019-Dec-12 02:37 292 1 gusting 3 -1.7
2019-Dec-12 02:32 270 1 gusting 3 -2.2
2019-Dec-12 02:26 248 0 gusting 2 -2.2
2019-Dec-12 02:21 068 0 gusting 1 -2.2
2019-Dec-12 02:16 225 -2.2
2019-Dec-12 02:11 270 -2.2
2019-Dec-12 02:06 270 -2.2
2019-Dec-12 02:01 225 1 gusting 2 -2.2
2019-Dec-12 01:56 202 0 gusting 2 -2.2
2019-Dec-12 01:51 292 1 gusting 2 -2.2
2019-Dec-12 01:46 248 -2.2
2019-Dec-12 01:41 202 -2.2
2019-Dec-12 01:36 270 -2.2
2019-Dec-12 01:31 270 -2.2
2019-Dec-12 01:26 270 -2.2
2019-Dec-12 01:21 248 -2.2
2019-Dec-12 01:16 248 -2.2
2019-Dec-12 01:11 248 -2.2
2019-Dec-12 01:06 248 -2.2
2019-Dec-12 01:01 248 -2.2
2019-Dec-12 00:56 248 -2.2
2019-Dec-12 00:51 248 -2.2
2019-Dec-12 00:45 202 0 gusting 1 -2.2
2019-Dec-12 00:40 270 -2.2
2019-Dec-12 00:35 270 -2.2
2019-Dec-12 00:30 270 -2.2
2019-Dec-12 00:25 225 -2.2
2019-Dec-12 00:20 112 -2.2
2019-Dec-12 00:15 090 -2.2
2019-Dec-12 00:10 068 -1.7
2019-Dec-12 00:05 202 -1.7
2019-Dec-12 00:00 270 -1.7
2019-Dec-11 23:55 270 -1.7
2019-Dec-11 23:50 270 -1.7
2019-Dec-11 23:45 270 -1.7
2019-Dec-11 23:40 202 -1.7
2019-Dec-11 23:35 180 -1.7
2019-Dec-11 23:30 270 -1.7
2019-Dec-11 23:25 270 -1.1
2019-Dec-11 23:20 248 -1.1
2019-Dec-11 23:15 270 -1.1
2019-Dec-11 23:10 292 -1.1
2019-Dec-11 23:05 292 -1.1
2019-Dec-11 23:00 292 -1.1
2019-Dec-11 22:55 315 -1.1
2019-Dec-11 22:50 338 -1.1
2019-Dec-11 22:45 338 -1.1
2019-Dec-11 22:40 338 -0.6
2019-Dec-11 22:35 338 -0.6
2019-Dec-11 22:30 270 -0.6
2019-Dec-11 22:25 315 -0.6
2019-Dec-11 22:20 338 -0.6
2019-Dec-11 22:15 225 -0.6
2019-Dec-11 22:10 292 -0.0
2019-Dec-11 22:05 202 -0.0
2019-Dec-11 22:00 202 -0.0
2019-Dec-11 21:54 202 0.6
2019-Dec-11 21:49 202 0.6
2019-Dec-11 21:44 202 0.6
2019-Dec-11 21:39 270 0.6
2019-Dec-11 21:33 270 1.1
2019-Dec-11 21:28 270 1.1
2019-Dec-11 21:23 248 1.1
2019-Dec-11 21:18 270 1.1
2019-Dec-11 21:13 270 1.7
2019-Dec-11 21:08 248 1.7
2019-Dec-11 21:03 338 1.7
2019-Dec-11 20:58 270 1.7
2019-Dec-11 20:53 270 2.2
2019-Dec-11 20:48 248 2.2
2019-Dec-11 20:43 180 2.8
2019-Dec-11 20:38 2.8
2019-Dec-11 20:32 270 2.8
2019-Dec-11 20:27 270 1 gusting 2 3.3
2019-Dec-11 20:22 248 1 gusting 2 3.3
2019-Dec-11 20:17 292 0 gusting 2 3.3
2019-Dec-11 20:12 225 1 gusting 2 3.9
2019-Dec-11 20:07 225 1 gusting 2 3.9
2019-Dec-11 20:02 180 2 gusting 2 3.9
2019-Dec-11 19:57 270 0 gusting 3 3.9
2019-Dec-11 19:52 090 1 gusting 3 3.9
2019-Dec-11 19:47 338 3.9
2019-Dec-11 19:42 270 3.3
2019-Dec-11 19:37 225 3.3
2019-Dec-11 19:32 225 0 gusting 1 3.3
2019-Dec-11 19:27 270 0 gusting 1 3.3
2019-Dec-11 19:22 225 0 gusting 1 3.3
2019-Dec-11 19:17 225 0 gusting 1 3.3
2019-Dec-11 19:12 202 0 gusting 2 3.3
2019-Dec-11 19:07 270 0 gusting 2 3.3
2019-Dec-11 19:02 248 3.3
2019-Dec-11 18:57 202 3.3
2019-Dec-11 18:52 248 3.3
2019-Dec-11 18:47 045 3.3
2019-Dec-11 18:42 068 0 gusting 1 3.3
2019-Dec-11 18:37 315 3.3
2019-Dec-11 18:32 315 0 gusting 1 3.3
2019-Dec-11 18:27 248 1 gusting 1 3.3
2019-Dec-11 18:22 248 0 gusting 1 3.3
2019-Dec-11 18:17 045 3.3
2019-Dec-11 18:12 3.3
2019-Dec-11 18:07 068 0 gusting 2 3.3
2019-Dec-11 18:01 090 3.3
2019-Dec-11 17:56 270 0 gusting 1 3.3
2019-Dec-11 17:51 338 3.3
2019-Dec-11 17:46 225 0 gusting 1 3.3
2019-Dec-11 17:41 315 0 gusting 1 3.3
2019-Dec-11 17:36 270 3.3
2019-Dec-11 17:31 202 0 gusting 2 3.3
2019-Dec-11 17:26 202 0 gusting 1 3.3
2019-Dec-11 17:21 270 3.3
2019-Dec-11 17:16 315 0 gusting 1 2.8
2019-Dec-11 17:11 270 2.8
2019-Dec-11 17:06 248 2.8
2019-Dec-11 17:01 248 2.8
2019-Dec-11 16:56 248 2.8
2019-Dec-11 16:49 338 2.8
2019-Dec-11 16:44 292 0 gusting 1 2.8
2019-Dec-11 16:39 270 2.8
2019-Dec-11 16:34 225 2.8
2019-Dec-11 16:29 270 2.8
2019-Dec-11 16:24 202 2.8
2019-Dec-11 16:19 225 2.8
2019-Dec-11 16:14 270 2.8
2019-Dec-11 16:09 202 0 gusting 1 2.8
2019-Dec-11 16:04 248 2.8
2019-Dec-11 15:58 225 2.8
2019-Dec-11 15:53 248 2.2
2019-Dec-11 15:48 315 2.2
2019-Dec-11 15:43 248 2.2
2019-Dec-11 15:38 248 2.2
2019-Dec-11 15:33 248 0 gusting 1 2.2
2019-Dec-11 15:28 225 2.2
2019-Dec-11 15:23 225 2.2
2019-Dec-11 15:18 225 1.7
2019-Dec-11 15:13 225 1.7
2019-Dec-11 15:08 225 1.7
2019-Dec-11 15:03 225 1.7
2019-Dec-11 14:58 225 1.7
2019-Dec-11 14:53 225 1.1
2019-Dec-11 14:48 225 1.1
2019-Dec-11 14:43 225 1.1
2019-Dec-11 14:38 225 0.6
2019-Dec-11 14:33 225 0.6
2019-Dec-11 14:28 225 0.6
2019-Dec-11 14:22 225 0.6
2019-Dec-11 14:17 225 0.6
2019-Dec-11 14:12 225 0.6
2019-Dec-11 14:06 225 0.6
2019-Dec-11 14:01 225 0.6
2019-Dec-11 13:56 225 0.6
2019-Dec-11 13:51 225 0.6
2019-Dec-11 13:46 225 0.6
2019-Dec-11 13:41 225 0.6
2019-Dec-11 13:36 225 0.6
2019-Dec-11 13:31 225 0.6
2019-Dec-11 13:26 225 0.6
2019-Dec-11 13:21 225 0.6
2019-Dec-11 13:16 225 0.6
2019-Dec-11 13:11 225 0.6
2019-Dec-11 13:06 225 0.6
2019-Dec-11 13:01 225 0.6
2019-Dec-11 12:53 225 0.6
2019-Dec-11 12:48 225 0.6
2019-Dec-11 12:43 225 0.6
2019-Dec-11 12:38 225 0.6
2019-Dec-11 12:33 225 0.6
2019-Dec-11 12:28 225 0.6
2019-Dec-11 12:23 225 0.6
2019-Dec-11 12:18 225 0.6
2019-Dec-11 12:13 225 0.6
2019-Dec-11 12:08 225 0.6
2019-Dec-11 12:03 225 0.6
2019-Dec-11 11:58 225 0.6
2019-Dec-11 11:53 225 0.6
2019-Dec-11 11:48 225 0.6
2019-Dec-11 11:43 225 0.6
2019-Dec-11 11:37 225 0.6
2019-Dec-11 11:32 225 0.6
2019-Dec-11 11:28 225 0.6
2019-Dec-11 11:22 225 0.6
2019-Dec-11 11:18 225 0.6
2019-Dec-11 11:12 225 0.6
2019-Dec-11 11:07 225 0.6
2019-Dec-11 11:02 225 0.6
2019-Dec-11 10:57 225 0.6
2019-Dec-11 10:51 225 0.6
2019-Dec-11 10:46 225 0.6
2019-Dec-11 10:41 225 0.6
2019-Dec-11 10:36 248 0.6
2019-Dec-11 10:31 225 0 gusting 0 0.6
2019-Dec-11 10:26 248 0.6
2019-Dec-11 10:21 248 0.6
2019-Dec-11 10:16 248 0.6
2019-Dec-11 10:11 0.6
2019-Dec-11 10:06 248 1.1
2019-Dec-11 10:01 270 0 gusting 2 1.1
2019-Dec-11 09:55 248 1.1
2019-Dec-11 09:50 045 1.1
2019-Dec-11 09:45 270 1.1
2019-Dec-11 09:40 248 1.1
2019-Dec-11 09:35 022 0 gusting 1 1.7
2019-Dec-11 09:30 338 0 gusting 1 1.7
2019-Dec-11 09:25 338 0 gusting 1 1.7
2019-Dec-11 09:20 270 1.7
2019-Dec-11 09:15 338 1 gusting 2 1.7
2019-Dec-11 09:10 090 0 gusting 1 1.7
2019-Dec-11 09:05 225 2.2
2019-Dec-11 09:00 202 2.2
2019-Dec-11 08:55 338 2.2
2019-Dec-11 08:50 270 0 gusting 1 2.2
2019-Dec-11 08:45 2.2
2019-Dec-11 08:40 338 0 gusting 4 2.2
2019-Dec-11 08:35 338 2 gusting 4 2.2
2019-Dec-11 08:29 248 2.2
2019-Dec-11 08:25 225 2.2
2019-Dec-11 08:20 270 2.2
2019-Dec-11 08:14 225 0 gusting 1 2.2
2019-Dec-11 08:09 225 0 gusting 2 2.8
2019-Dec-11 08:04 202 0 gusting 2 2.8
2019-Dec-11 07:59 270 0 gusting 2 2.8
2019-Dec-11 07:54 270 1 gusting 2 2.8
2019-Dec-11 07:49 248 2.8
2019-Dec-11 07:44 270 0 gusting 3 2.8
2019-Dec-11 07:39 248 1 gusting 3 2.8
2019-Dec-11 07:34 338 1 gusting 2 2.8
2019-Dec-11 07:29 248 0 gusting 4 2.8
2019-Dec-11 07:24 292 1 gusting 4 3.3
2019-Dec-11 07:19 292 1 gusting 2 3.3
2019-Dec-11 07:14 022 1 gusting 2 3.3
2019-Dec-11 07:09 248 1 gusting 3 3.3
2019-Dec-11 07:04 022 1 gusting 3 3.3
2019-Dec-11 06:59 338 1 gusting 3 3.3
2019-Dec-11 06:54 338 0 gusting 3 3.9
2019-Dec-11 06:49 338 0 gusting 3 3.9
2019-Dec-11 06:44 248 3.9
2019-Dec-11 06:39 270 2 gusting 2 4.4
2019-Dec-11 06:34 315 0 gusting 3 4.4
2019-Dec-11 06:29 315 1 gusting 3 4.4
2019-Dec-11 06:24 270 0 gusting 1 4.4
2019-Dec-11 06:19 225 4.4
2019-Dec-11 06:14 225 4.4
2019-Dec-11 06:09 4.4
2019-Dec-11 06:04 338 0 gusting 2 4.4
2019-Dec-11 05:59 248 0 gusting 3 5.0
2019-Dec-11 05:54 270 1 gusting 3 5.0
2019-Dec-11 05:49 5.0
2019-Dec-11 05:44 338 0 gusting 1 5.6
2019-Dec-11 05:39 292 5.6
2019-Dec-11 05:34 315 0 gusting 1 5.6
2019-Dec-11 05:29 270 5.6
2019-Dec-11 05:24 338 5.6
2019-Dec-11 05:19 292 5.6
2019-Dec-11 05:14 270 5.6
2019-Dec-11 05:09 5.6
2019-Dec-11 05:04 112 5.6
2019-Dec-11 04:58 248 0 gusting 5 6.1
2019-Dec-11 04:53 6.1
2019-Dec-11 04:48 338 6.1
2019-Dec-11 04:43 270 6.1
2019-Dec-11 04:38 6.1
2019-Dec-11 04:33 248 6.1
2019-Dec-11 04:28 6.1
2019-Dec-11 04:23 248 1 gusting 1 6.1
2019-Dec-11 04:18 248 6.1
2019-Dec-11 04:12 045 6.1
2019-Dec-11 04:07 270 6.1
2019-Dec-11 04:02 338 0 gusting 3 6.1
2019-Dec-11 03:57 292 6.7
2019-Dec-11 03:51 338 6.7
2019-Dec-11 03:46 270 6.7
2019-Dec-11 03:41 270 0 gusting 5 6.7
2019-Dec-11 03:36 022 1 gusting 5 6.7
2019-Dec-11 03:31 338 0 gusting 2 6.7
2019-Dec-11 03:26 248 0 gusting 2 7.2
2019-Dec-11 03:21 248 0 gusting 2 7.2
2019-Dec-11 03:16 315 1 gusting 3 7.2
2019-Dec-11 03:11 180 2 gusting 3 7.2
2019-Dec-11 03:06 202 0 gusting 1 7.8
2019-Dec-11 03:01 248 1 gusting 2 7.8
2019-Dec-11 02:56 292 7.8
2019-Dec-11 02:51 338 0 gusting 2 7.8
2019-Dec-11 02:46 8.3
2019-Dec-11 02:40 292 3 gusting 2 8.3
2019-Dec-11 02:35 270 2 gusting 2 8.3
2019-Dec-11 02:29 8.9
2019-Dec-11 02:24 338 0 gusting 2 8.9
2019-Dec-11 02:19 292 1 gusting 2 8.9
2019-Dec-11 02:14 225 2 gusting 1 9.4
2019-Dec-11 02:09 292 1 gusting 3 9.4
2019-Dec-11 02:04 270 0 gusting 3 9.4
2019-Dec-11 01:59 090 1 gusting 1 10.0
2019-Dec-11 01:54 270 0 gusting 4 10.0
2019-Dec-11 01:48 315 2 gusting 4 10.0
2019-Dec-11 01:43 338 2 gusting 3 10.0
2019-Dec-11 01:38 292 0 gusting 2 10.6
2019-Dec-11 01:33 112 0 gusting 2 10.6
2019-Dec-11 01:28 315 1 gusting 2 10.6
2019-Dec-11 01:23 248 0 gusting 2 10.6
2019-Dec-11 01:18 11.1
2019-Dec-11 01:13 180 0 gusting 0 11.1
2019-Dec-11 01:08 270 11.1
2019-Dec-11 01:03 202 11.1
2019-Dec-11 00:58 315 0 gusting 2 11.1
2019-Dec-11 00:53 292 0 gusting 2 11.1
2019-Dec-11 00:48 270 0 gusting 2 11.1
2019-Dec-11 00:43 248 11.7
2019-Dec-11 00:38 090 0 gusting 2 11.7
2019-Dec-11 00:33 045 11.7
2019-Dec-11 00:28 338 2 gusting 5 11.7
2019-Dec-11 00:22 225 1 gusting 3 12.2
2019-Dec-11 00:17 292 12.2
2019-Dec-11 00:12 315 0 gusting 2 12.2
2019-Dec-11 00:07 045 12.2
2019-Dec-11 00:02 112 12.2
2019-Dec-10 23:57 225 12.8
2019-Dec-10 23:52 202 12.8
2019-Dec-10 23:47 225 12.8
2019-Dec-10 23:42 248 12.8
2019-Dec-10 23:36 248 12.8
2019-Dec-10 23:31 248 12.8
2019-Dec-10 23:26 180 12.8
2019-Dec-10 23:21 202 12.8
2019-Dec-10 23:16 270 12.8
2019-Dec-10 23:11 270 12.8
2019-Dec-10 23:06 270 12.8
2019-Dec-10 23:01 315 12.8